Weather History for KPQN - March, 2013

Change the Weather History Date:

Wednesday, March 27, 2013

  Actual Average Record
Temperature  
Mean Temperature 34 °F -  
Max Temperature 46 °F 43 °F 64 °F (2012)
Min Temperature 21 °F 27 °F 10 °F (2001)
Degree Days  
Heating Degree Days 32    
Moisture  
Dew Point 24 °F    
Average Humidity 72    
Maximum Humidity 93    
Minimum Humidity 46    
Precipitation  
Precipitation 0.00 in - - ()
Sea Level Pressure  
Sea Level Pressure 30.22 in    
Wind  
Wind Speed 8 mph (SSE)    
Max Wind Speed 14 mph    
Max Gust Speed 18 mph    
Visibility 10 miles    
Events      
Averages and records for this station are not official NWS values.
T = Trace of Precipitation, MM = Missing Value Source: NWS Daily Summary

Daily Weather History Graph

Daily Weather History Graph

Search for Another Location

Airport or City:

Trip Planner

Search our weather history database for the weather conditions in past years. The results will help you decide how hot, cold, wet, or windy it might be!

Date:

Astronomy

Mar. 27, 2013 Rise Set
Actual Time 7:15 AM CDT 7:46 PM CDT
Civil Twilight 6:46 AM CDT 8:15 PM CDT
Nautical Twilight 6:12 AM CDT 8:49 PM CDT
Astronomical Twilight 5:36 AM CDT 9:25 PM CDT
Moon 8:34 PM CDT (3/27) 7:05 AM CDT (3/27)
Length of Visible Light 13h 29m
Length of Day
12h 31m
Full, 100% of the Moon is Illuminated
Mar 27
Full
Apr 2
Last Quarter
Apr 10
New
Apr 18
First Quarter
Apr 25
Full

Hourly Weather History & Observations

Time (CDT) Temp. Windchill Dew Point Humidity Pressure Visibility Wind Dir Wind Speed Gust Speed Precip Events Conditions
12:13 AM 26.6 °F 18.2 °F 24.8 °F 93% 30.23 in 10.0 mi ESE 8.1 mph - N/A   Clear
12:33 AM 26.6 °F 18.2 °F 24.8 °F 93% 30.23 in 10.0 mi ESE 8.1 mph - N/A   Clear
12:53 AM 26.6 °F 19.1 °F 24.8 °F 93% 30.23 in 10.0 mi SE 6.9 mph - N/A   Clear
1:13 AM 26.6 °F 21.2 °F 24.8 °F 93% 30.22 in 10.0 mi SE 4.6 mph - N/A   Clear
1:33 AM 26.6 °F 20.0 °F 23.0 °F 86% 30.23 in 10.0 mi SE 5.8 mph - N/A   Clear
1:53 AM 24.8 °F 19.1 °F 23.0 °F 93% 30.23 in 10.0 mi SE 4.6 mph - N/A   Clear
2:13 AM 24.8 °F 19.1 °F 21.2 °F 86% 30.24 in 10.0 mi SE 4.6 mph - N/A   Clear
2:33 AM 24.8 °F 19.1 °F 21.2 °F 86% 30.24 in 10.0 mi SE 4.6 mph - N/A   Clear
2:53 AM 24.8 °F 19.1 °F 21.2 °F 86% 30.24 in 10.0 mi ESE 4.6 mph - N/A   Clear
3:13 AM 24.8 °F 17.9 °F 21.2 °F 86% 30.23 in 10.0 mi ESE 5.8 mph - N/A   Clear
3:33 AM 23.0 °F 15.8 °F 21.2 °F 93% 30.23 in 10.0 mi SE 5.8 mph - N/A   Clear
3:53 AM 23.0 °F 15.8 °F 19.4 °F 86% 30.22 in 10.0 mi SE 5.8 mph - N/A   Clear
4:13 AM 23.0 °F 15.8 °F 19.4 °F 86% 30.22 in 10.0 mi SE 5.8 mph - N/A   Clear
4:33 AM 23.0 °F 15.8 °F 19.4 °F 86% 30.22 in 10.0 mi SE 5.8 mph - N/A   Clear
4:53 AM 23.0 °F 13.9 °F 19.4 °F 86% 30.22 in 10.0 mi SE 8.1 mph - N/A   Clear
5:13 AM 23.0 °F 14.7 °F 17.6 °F 80% 30.21 in 10.0 mi ESE 6.9 mph - N/A   Clear
5:33 AM 21.2 °F 13.6 °F 17.6 °F 86% 30.21 in 10.0 mi SE 5.8 mph - N/A   Clear
5:53 AM 21.2 °F 12.6 °F 19.4 °F 93% 30.21 in 10.0 mi SE 6.9 mph - N/A   Clear
6:13 AM 21.2 °F 12.6 °F 19.4 °F 93% 30.22 in 10.0 mi SE 6.9 mph - N/A   Clear
6:33 AM 21.2 °F 13.6 °F 19.4 °F 93% 30.22 in 10.0 mi SE 5.8 mph - N/A   Clear
6:54 AM 23.0 °F 13.9 °F 19.4 °F 86% 30.22 in 10.0 mi SSE 8.1 mph - N/A   Clear
7:13 AM 24.8 °F 15.3 °F 19.4 °F 80% 30.22 in 10.0 mi SSE 9.2 mph - N/A   Clear
7:33 AM 24.8 °F 16.9 °F 19.4 °F 80% 30.22 in 10.0 mi SSE 6.9 mph - N/A   Clear
7:53 AM 24.8 °F 16.1 °F 19.4 °F 80% 30.22 in 10.0 mi SE 8.1 mph - N/A   Clear
8:13 AM 24.8 °F 16.1 °F 21.2 °F 86% 30.22 in 10.0 mi SSE 8.1 mph - N/A   Clear
8:33 AM 26.6 °F 17.5 °F 21.2 °F 80% 30.23 in 10.0 mi SSE 9.2 mph - N/A   Clear
8:53 AM 28.4 °F 19.1 °F 23.0 °F 80% 30.22 in 10.0 mi SSE 10.4 mph - N/A   Clear
9:13 AM 28.4 °F 19.7 °F 24.8 °F 86% 30.23 in 10.0 mi SSE 9.2 mph - N/A   Clear
9:33 AM 30.2 °F 21.9 °F 24.8 °F 80% 30.23 in 10.0 mi SSE 9.2 mph - N/A   Clear
9:54 AM 32.0 °F 23.6 °F 24.8 °F 75% 30.24 in 10.0 mi SSE 10.4 mph - N/A   Clear
10:13 AM 33.8 °F 25.8 °F 24.8 °F 70% 30.24 in 10.0 mi SSE 10.4 mph - N/A   Clear
10:33 AM 33.8 °F 25.8 °F 24.8 °F 70% 30.24 in 10.0 mi SSE 10.4 mph - N/A   Clear
10:54 AM 35.6 °F 27.1 °F 24.8 °F 65% 30.23 in 10.0 mi SSE 12.7 mph - N/A   Clear
11:13 AM 35.6 °F 27.5 °F 24.8 °F 65% 30.23 in 10.0 mi SSE 11.5 mph 17.3 mph N/A   Clear
11:33 AM 37.4 °F 29.8 °F 24.8 °F 60% 30.23 in 10.0 mi SSE 11.5 mph 17.3 mph N/A   Clear
11:53 AM 39.2 °F 32.0 °F 24.8 °F 56% 30.24 in 10.0 mi South 11.5 mph 18.4 mph N/A   Clear
12:13 PM 39.2 °F 32.0 °F 24.8 °F 56% 30.24 in 10.0 mi South 11.5 mph - N/A   Clear
12:33 PM 39.2 °F 31.6 °F 24.8 °F 56% 30.23 in 10.0 mi SSE 12.7 mph - N/A   Clear
12:53 PM 41.0 °F 33.5 °F 26.6 °F 57% 30.22 in 10.0 mi South 13.8 mph 18.4 mph N/A   Clear
1:13 PM 42.8 °F 36.2 °F 26.6 °F 53% 30.22 in 10.0 mi South 12.7 mph - N/A   Clear
1:33 PM 42.8 °F 36.6 °F 26.6 °F 53% 30.22 in 10.0 mi South 11.5 mph 18.4 mph N/A   Clear
1:53 PM 42.8 °F 37.0 °F 26.6 °F 53% 30.22 in 10.0 mi SSE 10.4 mph - N/A   Clear
2:14 PM 42.8 °F 36.6 °F 26.6 °F 53% 30.21 in 10.0 mi SSE 11.5 mph 18.4 mph N/A   Clear
2:33 PM 44.6 °F 38.8 °F 26.6 °F 49% 30.21 in 10.0 mi South 11.5 mph 18.4 mph N/A   Clear
2:53 PM 44.6 °F 38.1 °F 26.6 °F 49% 30.20 in 10.0 mi SSE 13.8 mph - N/A   Clear
3:14 PM 44.6 °F 39.2 °F 26.6 °F 49% 30.20 in 10.0 mi SSE 10.4 mph 17.3 mph N/A   Clear
3:33 PM 44.6 °F 38.8 °F 24.8 °F 46% 30.19 in 10.0 mi South 11.5 mph 16.1 mph N/A   Clear
3:53 PM 44.6 °F 39.7 °F 24.8 °F 46% 30.19 in 10.0 mi SSE 9.2 mph - N/A   Clear
4:14 PM 46.4 °F 41.1 °F 26.6 °F 46% 30.19 in 10.0 mi South 11.5 mph 16.1 mph N/A   Clear
4:33 PM 44.6 °F 38.8 °F 24.8 °F 46% 30.19 in 10.0 mi SSE 11.5 mph - N/A   Clear
4:53 PM 44.6 °F 38.8 °F 26.6 °F 49% 30.18 in 10.0 mi SE 11.5 mph 17.3 mph N/A   Clear
5:14 PM 44.6 °F 38.8 °F 26.6 °F 49% 30.18 in 10.0 mi SSE 11.5 mph - N/A   Clear
5:33 PM 44.6 °F 39.7 °F 26.6 °F 49% 30.19 in 10.0 mi SE 9.2 mph - N/A   Clear
5:53 PM 44.6 °F 38.8 °F 26.6 °F 49% 30.19 in 10.0 mi SSE 11.5 mph - N/A   Clear
6:13 PM 44.6 °F 39.2 °F 26.6 °F 49% 30.19 in 10.0 mi SSE 10.4 mph - N/A   Clear
6:33 PM 42.8 °F 37.5 °F 26.6 °F 53% 30.19 in 10.0 mi SSE 9.2 mph - N/A   Clear
6:53 PM 42.8 °F 36.6 °F 26.6 °F 53% 30.20 in 10.0 mi SSE 11.5 mph - N/A   Clear
7:13 PM 41.0 °F 35.8 °F 28.4 °F 61% 30.20 in 10.0 mi SSE 8.1 mph - N/A   Clear
7:33 PM 39.2 °F 33.6 °F 28.4 °F 65% 30.21 in 10.0 mi SSE 8.1 mph - N/A   Clear
7:53 PM 39.2 °F 33.0 °F 28.4 °F 65% 30.21 in 10.0 mi SSE 9.2 mph - N/A   Clear
8:13 PM 37.4 °F 30.8 °F 26.6 °F 65% 30.21 in 10.0 mi SSE 9.2 mph - N/A   Clear
8:33 PM 35.6 °F 30.7 °F 26.6 °F 70% 30.22 in 10.0 mi SE 5.8 mph - N/A   Clear
8:53 PM 33.8 °F 27.7 °F 28.4 °F 81% 30.22 in 10.0 mi SE 6.9 mph - N/A   Clear
9:13 PM 33.8 °F 27.0 °F 28.4 °F 81% 30.23 in 10.0 mi SE 8.1 mph - N/A   Clear
9:33 PM 33.8 °F 27.0 °F 28.4 °F 81% 30.23 in 10.0 mi SE 8.1 mph - N/A   Clear
9:53 PM 33.8 °F 25.8 °F 28.4 °F 81% 30.23 in 10.0 mi SSE 10.4 mph - N/A   Clear
10:13 PM 33.8 °F 27.0 °F 28.4 °F 81% 30.24 in 10.0 mi SE 8.1 mph - N/A   Clear
10:33 PM 32.0 °F 24.2 °F 28.4 °F 87% 30.24 in 10.0 mi SE 9.2 mph - N/A   Clear
10:53 PM 32.0 °F 24.2 °F 28.4 °F 87% 30.23 in 10.0 mi SE 9.2 mph - N/A   Clear
11:13 PM 32.0 °F 24.8 °F 28.4 °F 87% 30.23 in 10.0 mi SE 8.1 mph - N/A   Clear
11:33 PM 32.0 °F 24.8 °F 28.4 °F 87% 30.23 in 10.0 mi SE 8.1 mph - N/A   Clear
11:53 PM 30.2 °F 23.4 °F 28.4 °F 93% 30.23 in 10.0 mi SE 6.9 mph - N/A   Clear